Current weather by "City, St" or "zip code"  
 
Advertise Here

Current Conditions: York, York Municipal Airport, NE

Light Snow Fog/Mist


25.0 F

Last Updated on Jan 25 2021, 3:55 am CST
Humidity: 100%
Wind Speed: E 10.4 mph
Barometer 29.85 in
Dewpoint: 24.8 F
Visibility: 2.00 mi
Precip: --
Heat Index: NA
Wind Chill: 15 F
Current conditions at:

York, York Municipal Airport, NE (KJYR)

Lat: 40.89667 Lon: 97.62278

Local Radar Image active severe weather and emergency alerts image image weather storm and storm spotter reports image weather observation monitoring service image
Local
Radar
Active
Alerts
Storm Reports Obs
Monitoring

Sign-up For Email & Text Message Weather Alert Notification Services


Advertise Here

Observation History for York, York Municipal Airport, NE


Time Wind
(mph)
Vis
(mi)
Weather Precip (in) Temperature (F) Relative
Humidity
Wind
Chill
(F)
Heat
Index
(F)
Pressure
Air Dwpt altimeter
(in)
sea level
(mb)
Rmks
3:55 am CST E 10.4 2.00 Light Snow Fog/Mist -- 25.0 24.8 100% 15 NA 29.85 M
2:55 am CST E 9.2 3.00 Light Snow Fog/Mist -- 25.0 24.8 100% 16 NA 29.87 M
1:55 am CST NE 9.2 G 15.0 3.00 Light Snow Fog/Mist -- 25.0 24.8 100% 16 NA 29.87 M
12:55 am CST E 10.4 8.00 Overcast -- 25.0 24.8 100% 15 NA 29.91 M
11:55 pm CST NE 10.4 9.00 Overcast -- 25.0 23.0 93% 15 NA 29.94 M
11:35 pm CST NE 9.2 9.00 Overcast -- 25.0 23.0 93% 16 NA 29.95 M
10:55 pm CST NE 8.1 9.00 Overcast -- 25.0 23.0 93% 16 NA 29.96 M
9:55 pm CST E 6.9 9.00 Overcast -- 25.0 23.0 93% 17 NA 29.98 M
8:55 pm CST E 4.6 10.00 Overcast -- 25.0 23.0 93% 19 NA 29.97 M
7:55 pm CST E 6.9 10.00 Overcast -- 25.0 23.0 93% 17 NA 29.97 M
6:55 pm CST E 9.2 10.00 Overcast -- 25.0 23.0 93% 16 NA 29.97 M
5:55 pm CST E 8.1 10.00 Overcast -- 25.0 23.0 93% 16 NA 29.99 M
4:55 pm CST E 8.1 10.00 Overcast -- 27.0 23.0 86% 19 NA 30.00 M
3:55 pm CST NE 5.8 10.00 Overcast -- 27.0 24.8 93% 20 NA 30.02 M
3:35 pm CST NE 6.9 10.00 Overcast -- 27.0 24.8 93% 20 NA 30.02 M
2:55 pm CST NE 6.9 10.00 Overcast -- 27.0 24.8 93% 20 NA 30.03 M
2:35 pm CST NE 8.1 10.00 Overcast -- 27.0 24.8 93% 19 NA 30.03 M
1:55 pm CST NE 10.4 G 16.1 10.00 Overcast -- 27.0 23.0 86% 17 NA 30.02 M
1:35 pm CST NE 8.1 10.00 Overcast -- 27.0 24.8 93% 19 NA 30.03 M
12:55 pm CST NE 8.1 10.00 Overcast -- 27.0 24.8 93% 19 NA 30.05 M
12:35 pm CST NE 6.9 10.00 Overcast -- 27.0 24.8 93% 20 NA 30.07 M
11:55 am CST N 10.4 10.00 Overcast -- 27.0 24.8 93% 17 NA 30.07 M
10:55 am CST N 8.1 10.00 Overcast -- 27.0 24.8 93% 19 NA 30.10 M
9:55 am CST N 11.5 10.00 Overcast -- 27.0 24.8 93% 17 NA 30.08 M

Regional Weather Observation


Aurora, Aurora Municipal Airport, NE (KAUH)

Light Snow
25.0 F

Columbus, Columbus Municipal Airport, NE (KOLU)

Fog/Mist
22.0 F

Grand Island, Central Nebraska Regional Airport, NE (KGRI)

Light Snow Fog/Mist
25.0 F

Albion Municipal Airport, NE (KBVN)

Fog/Mist
23.0 F

Hastings, Hastings Municipal Airport, NE (KHSI)

Light Snow Fog/Mist
25.0 F

Norfolk, Stefan Memorial Airport, NE (KOFK)

Fog/Mist
22.0 F